OneWeb SL0351

operational
NORAD ID: 49215 Int'l Des: 2021-083 Owner: ONEWEBN Country: UK Constellation: oneweb
LEOCIRCULARPOLARONEWEB_TYPE

About OneWeb SL0351

Description loading...

Live Position

Loading 3D Globe...

Upcoming Passes

Altitude History

Altitude vs Time

uPlot chart will show altitude changes over time

Two-Line Element Set

1 49215U 21083AF 25304.01914674 .00000094 00000-0 20000-3 0 9999
2 49215 87.9205 320.1411 0002791 101.2748 258.8699 13.20770298206529
Epoch: Oct 31, 2025 • Age: 16 hours

Current Status

Altitude 1189.6 km
Velocity 7.26 km/s
Sub-Earth Point -19.57°S, 139.62°W
Launch Date Sep 14, 2021
Age 4.1 years
Type internet

Technical Details

Classification Payload
Mass 148.00 kg
Dry Mass 140.00 kg
Total Mass 148.00 kg
Length 1.30 m
Diameter 1.00 m
Span 5.00 m
Shape Trapezoid+2 pan
Manufacturer ONEWUS
Bus Type ARROW
Phase Status In Orbit
Owner/State ONEWEBN/UK

Large Constellations

Loading constellations...